QPF
0.00 0.00 0.00 0.00 0.00 0.00 0.00 0.00 0.00 0.00 0.00 0.00 0.00 0.00 0.00 0.00 0.00 0.02 0.00 0.00 0.00 0.00 0.00 0.00 0.00 0.00 0.00 0.00 0.00 0.00 0.00 0.00 0.00 0.00 0.00 0.00 0.00 0.00 0.00 0.00 0.00 0.00 0.00 0.00 0.00 0.00 0.00 0.00 0.00
0.00 0.00 0.00 0.00 0.00 0.00 0.00 0.00 0.00 0.00 0.00 0.00 0.00 0.00 0.00 0.00 0.00 0.00 0.01 0.01 0.00 0.00 0.00 0.00 0.00 0.00 0.00 0.00 0.00 0.00 0.00 0.00 0.00 0.00 0.00 0.00 0.00 0.00 0.00 0.00 0.00 0.00 0.00 0.00 0.00 0.00 0.00 0.01 0.01
0.00 0.00 0.00 0.00 0.00 0.00 0.00 0.00 0.00 0.00 0.00 0.00 0.00 0.00 0.00 0.00 0.00 0.01 0.00 0.00 0.00 0.00 0.00 0.00 0.00 0.00 0.00 0.00 0.00 0.00 0.00 0.00 0.00 0.00 0.00 0.00 0.00 0.00 0.00 0.00 0.00 0.00 0.00 0.00 0.00 0.00 0.00 0.01 0.01
0.00 0.00 0.00 0.00 0.00 0.00 0.00 0.00 0.00 0.00 0.00 0.00 0.00 0.00 0.00 0.00 0.00 0.00 0.00 0.00 0.00 0.00 0.00 0.00 0.00 0.00 0.00 0.00 0.00 0.00 0.00 0.00 0.00 0.00 0.00 0.00 0.00 0.00 0.00 0.00 0.00 0.00 0.00 0.00 0.00 0.00 0.00 0.00 0.00
0.00 0.00 0.00 0.00 0.00 0.00 0.00 0.00 0.00 0.00 0.00 0.00 0.00 0.00 0.00 0.00 0.00 0.00 0.00 0.00 0.00 0.00 0.00 0.00 0.00 0.00 0.00 0.00 0.00 0.00 0.00 0.00 0.00 0.00 0.00 0.00 0.00 0.00 0.00 0.00 0.00 0.00 0.00 0.00 0.00 0.00 0.00 0.00 0.00
0.00 0.00 0.00 0.00 0.00 0.00 0.00 0.00 0.00 0.00 0.00 0.00 0.00 0.00 0.00 0.00 0.00 0.00 0.00 0.00 0.00 0.00 0.00 0.00 0.00 0.00 0.00 0.00 0.00 0.00 0.00 0.00 0.00 0.00 0.00 0.00 0.00 0.00 0.00 0.00 0.00 0.00 0.00 0.00 0.00 0.00 0.00 0.00 0.00
0.00 0.00 0.00 0.00 0.00 0.00 0.00 0.00 0.00 0.00 0.00 0.00 0.00 0.00 0.00 0.00 0.00 0.00 0.00 0.00 0.01 0.01 0.01 0.00 0.00 0.00 0.00 0.00 0.00 0.00 0.00 0.00 0.00 0.00 0.00 0.00 0.00 0.00 0.00 0.00 0.00 0.00 0.00 0.00 0.00 0.00 0.00 0.00 0.00
0.00 0.00 0.00 0.00 0.00 0.00 0.00 0.00 0.00 0.00 0.00 0.00 0.00 0.00 0.00 0.00 0.00 0.00 0.00 0.00 0.01 0.02 0.02 0.01 0.00 0.00 0.00 0.00 0.00 0.00 0.00 0.00 0.00 0.00 0.00 0.00 0.00 0.00 0.00 0.00 0.00 0.00 0.00 0.00 0.00 0.00 0.00 0.00 0.00
0.00 0.00 0.00 0.00 0.00 0.00 0.00 0.00 0.00 0.00 0.00 0.00 0.00 0.00 0.00 0.00 0.00 0.00 0.00 0.00 0.01 0.00 0.01 0.01 0.01 0.00 0.00 0.00 0.00 0.00 0.00 0.00 0.00 0.00 0.00 0.00 0.00 0.00 0.00 0.00 0.00 0.00 0.00 0.00 0.00 0.00 0.00 0.00 0.00
0.00 0.00 0.00 0.00 0.00 0.00 0.00 0.00 0.00 0.00 0.00 0.00 0.00 0.00 0.00 0.00 0.00 0.00 0.00 0.00 0.00 0.00 0.00 0.01 0.01 0.00 0.00 0.00 0.00 0.00 0.00 0.00 0.00 0.00 0.00 0.00 0.00 0.00 0.00 0.00 0.00 0.00 0.00 0.00 0.00 0.00 0.00 0.00 0.00
0.00 0.00 0.00 0.00 0.00 0.00 0.00 0.00 0.00 0.00 0.00 0.00 0.00 0.00 0.00 0.00 0.00 0.00 0.00 0.00 0.00 0.00 0.00 0.00 0.00 0.00 0.00 0.00 0.00 0.00 0.00 0.00 0.00 0.00 0.00 0.00 0.00 0.00 0.00 0.00 0.00 0.00 0.00 0.00 0.00 0.00 0.00 0.00 0.00
0.00 0.00 0.00 0.00 0.00 0.00 0.00 0.00 0.00 0.00 0.00 0.00 0.00 0.00 0.00 0.00 0.00 0.00 0.00 0.00 0.00 0.00 0.00 0.00 0.00 0.00 0.00 0.00 0.00 0.00 0.00 0.00 0.00 0.00 0.00 0.00 0.00 0.00 0.00 0.00 0.00 0.00 0.00 0.00 0.00 0.00 0.00 0.00 0.00
0.00 0.00 0.00 0.00 0.00 0.00 0.00 0.00 0.00 0.00 0.00 0.00 0.00 0.00 0.00 0.00 0.00 0.00 0.00 0.00 0.00 0.00 0.02 0.03 0.02 0.00 0.01 0.00 0.00 0.00 0.00 0.00 0.00 0.00 0.00 0.00 0.00 0.00 0.00 0.00 0.00 0.00 0.00 0.00 0.00 0.00 0.00 0.00 0.00
0.00 0.00 0.00 0.00 0.00 0.00 0.00 0.00 0.00 0.00 0.00 0.00 0.00 0.00 0.00 0.00 0.00 0.00 0.00 0.00 0.00 0.00 0.00 0.01 0.01 0.01 0.00 0.00 0.00 0.00 0.00 0.00 0.00 0.00 0.00 0.00 0.00 0.00 0.00 0.00 0.00 0.00 0.00 0.00 0.00 0.00 0.00 0.00 0.00
0.00 0.00 0.00 0.00 0.00 0.00 0.00 0.00 0.00 0.00 0.00 0.00 0.00 0.00 0.00 0.00 0.00 0.00 0.00 0.00 0.00 0.00 0.00 0.00 0.02 0.01 0.01 0.00 0.01 0.01 0.00 0.01 0.00 0.00 0.00 0.00 0.00 0.00 0.00 0.00 0.00 0.00 0.00 0.00 0.00 0.00 0.00 0.00 0.00
0.00 0.00 0.00 0.00 0.00 0.00 0.00 0.00 0.00 0.00 0.00 0.00 0.00 0.00 0.00 0.00 0.00 0.00 0.00 0.00 0.00 0.00 0.00 0.00 0.00 0.01 0.01 0.00 0.02 0.01 0.02 0.02 0.00 0.00 0.00 0.00 0.00 0.00 0.01 0.00 0.00 0.00 0.00 0.00 0.00 0.00 0.00 0.00 0.00
0.00 0.00 0.00 0.00 0.00 0.00 0.00 0.00 0.00 0.00 0.00 0.00 0.00 0.00 0.00 0.00 0.00 0.00 0.00 0.00 0.00 0.00 0.00 0.00 0.00 0.00 0.00 0.00 0.00 0.00 0.00 0.00 0.00 0.00 0.00 0.00 0.00 0.00 0.01 0.01 0.01 0.01 0.02 0.01 0.01 0.02 0.02 0.00 0.00
0.00 0.00 0.00 0.00 0.00 0.00 0.00 0.00 0.00 0.00 0.00 0.00 0.00 0.00 0.00 0.00 0.00 0.00 0.00 0.00 0.00 0.00 0.00 0.00 0.00 0.00 0.00 0.00 0.00 0.00 0.00 0.00 0.00 0.00 0.00 0.00 0.00 0.00 0.00 0.00 0.00 0.01 0.02 0.03 0.04 0.06 0.05 0.06 0.03
0.00 0.00 0.00 0.00 0.00 0.00 0.00 0.00 0.00 0.00 0.00 0.00 0.00 0.00 0.00 0.00 0.00 0.00 0.00 0.00 0.00 0.00 0.00 0.00 0.00 0.00 0.00 0.00 0.00 0.00 0.00 0.00 0.00 0.00 0.00 0.00 0.00 0.00 0.02 0.03 0.03 0.07 0.07 0.04 0.03 0.03 0.03 0.03 0.02
0.00 0.00 0.00 0.00 0.00 0.00 0.00 0.00 0.00 0.00 0.00 0.00 0.00 0.00 0.00 0.00 0.00 0.00 0.00 0.00 0.00 0.00 0.00 0.00 0.00 0.00 0.00 0.00 0.00 0.00 0.00 0.00 0.00 0.00 0.00 0.00 0.00 0.00 0.01 0.02 0.03 0.05 0.06 0.06 0.05 0.05 0.06 0.05 0.05
0.00 0.00 0.00 0.00 0.00 0.00 0.00 0.00 0.00 0.00 0.00 0.00 0.00 0.00 0.00 0.00 0.00 0.00 0.00 0.00 0.00 0.00 0.00 0.00 0.00 0.00 0.00 0.00 0.00 0.00 0.00 0.00 0.00 0.00 0.00 0.00 0.00 0.00 0.00 0.00 0.00 0.00 0.00 0.00 0.01 0.02 0.04 0.04 0.05
0.00 0.00 0.00 0.00 0.00 0.00 0.00 0.00 0.00 0.00 0.00 0.00 0.00 0.00 0.00 0.00 0.00 0.00 0.00 0.00 0.00 0.00 0.00 0.00 0.00 0.00 0.00 0.00 0.00 0.00 0.00 0.00 0.00 0.00 0.00 0.00 0.00 0.00 0.00 0.00 0.00 0.00 0.00 0.00 0.00 0.00 0.00 0.01 0.01
0.00 0.00 0.00 0.00 0.00 0.00 0.00 0.00 0.01 0.00 0.00 0.00 0.00 0.00 0.00 0.00 0.00 0.00 0.00 0.00 0.00 0.00 0.00 0.00 0.00 0.00 0.00 0.00 0.00 0.00 0.00 0.00 0.00 0.00 0.00 0.00 0.00 0.00 0.00 0.00 0.00 0.00 0.00 0.00 0.00 0.00 0.00 0.00 0.00
0.00 0.00 0.00 0.00 0.00 0.00 0.00 0.00 0.02 0.00 0.00 0.00 0.00 0.00 0.00 0.00 0.00 0.00 0.00 0.00 0.00 0.00 0.00 0.00 0.00 0.00 0.00 0.00 0.00 0.00 0.00 0.00 0.00 0.00 0.00 0.00 0.00 0.00 0.00 0.00 0.00 0.00 0.00 0.00 0.00 0.00 0.00 0.00 0.00
0.00 0.00 0.00 0.00 0.00 0.00 0.00 0.00 0.00 0.00 0.00 0.00 0.00 0.00 0.00 0.00 0.00 0.00 0.00 0.00 0.00 0.00 0.00 0.00 0.00 0.00 0.00 0.00 0.00 0.00 0.00 0.00 0.00 0.00 0.00 0.00 0.00 0.00 0.00 0.00 0.00 0.00 0.00 0.02 0.02 0.02 0.01 0.00 0.00
0.00 0.00 0.00 0.00 0.01 0.05 0.02 0.00 0.01 0.00 0.00 0.00 0.00 0.00 0.00 0.00 0.00 0.00 0.00 0.00 0.00 0.00 0.00 0.00 0.00 0.00 0.00 0.00 0.00 0.00 0.00 0.00 0.00 0.00 0.00 0.00 0.00 0.00 0.00 0.00 0.00 0.00 0.01 0.02 0.03 0.02 0.01 0.00 0.00
0.00 0.00 0.00 0.00 0.00 0.02 0.04 0.01 0.00 0.00 0.00 0.00 0.00 0.00 0.00 0.00 0.00 0.00 0.00 0.00 0.00 0.00 0.00 0.00 0.00 0.00 0.00 0.00 0.00 0.00 0.00 0.00 0.00 0.00 0.00 0.00 0.00 0.00 0.00 0.01 0.00 0.00 0.00 0.00 0.01 0.02 0.02 0.01 0.00
0.00 0.00 0.00 0.00 0.00 0.00 0.00 0.04 0.01 0.00 0.00 0.00 0.00 0.00 0.00 0.00 0.00 0.00 0.00 0.00 0.00 0.00 0.00 0.00 0.00 0.00 0.00 0.00 0.00 0.00 0.00 0.00 0.00 0.00 0.00 0.00 0.01 0.01 0.02 0.01 0.01 0.01 0.01 0.01 0.02 0.02 0.02 0.03 0.02
0.00 0.00 0.00 0.02 0.01 0.01 0.02 0.04 0.00 0.00 0.00 0.00 0.00 0.00 0.00 0.00 0.00 0.00 0.00 0.00 0.00 0.00 0.00 0.00 0.00 0.00 0.00 0.00 0.00 0.00 0.00 0.00 0.00 0.00 0.00 0.01 0.01 0.01 0.01 0.01 0.01 0.01 0.00 0.00 0.01 0.01 0.01 0.02 0.02
0.00 0.00 0.01 0.01 0.00 0.01 0.01 0.02 0.00 0.00 0.00 0.00 0.00 0.00 0.00 0.00 0.00 0.00 0.00 0.00 0.00 0.00 0.00 0.00 0.00 0.00 0.00 0.00 0.00 0.00 0.00 0.00 0.00 0.00 0.00 0.00 0.01 0.01 0.01 0.01 0.01 0.01 0.01 0.01 0.01 0.01 0.00 0.00 0.01
MSLP
1010.57 1010.43 1009.84 1008.54 1007.51 1004.78 1002.14 1001.26 1000.97 1000.58 1001.48 1003.06 1004.20 1005.82 1009.14 1011.07 1012.25 1014.91 1016.60 1017.10 1017.43 1017.92 1018.30 1018.54 1018.66 1018.70 1018.93 1019.14 1019.31 1019.39 1019.59 1019.75 1019.83 1019.88 1019.92 1020.10 1019.96 1020.02 1019.99 1020.10 1020.03 1020.00 1019.93 1019.62 1019.69 1019.61 1019.36 1019.32 1019.19
1009.87 1009.03 1008.21 1007.23 1005.77 1003.09 1001.53 1001.27 1001.36 1001.82 1002.87 1003.94 1005.24 1006.91 1008.91 1012.92 1014.46 1015.98 1017.01 1017.55 1017.78 1018.11 1018.42 1018.68 1019.05 1019.09 1019.35 1019.59 1019.72 1019.86 1019.97 1020.15 1020.20 1020.24 1020.29 1020.33 1020.21 1020.16 1020.35 1020.48 1020.17 1020.18 1020.18 1019.76 1019.95 1019.83 1019.56 1019.60 1019.46
1010.55 1009.17 1007.77 1005.85 1004.15 1002.27 1001.72 1002.06 1002.40 1002.87 1003.80 1004.25 1006.42 1008.77 1011.07 1014.09 1015.48 1016.62 1017.47 1017.76 1018.02 1018.38 1018.60 1019.24 1019.44 1019.51 1019.62 1019.94 1020.08 1020.22 1020.40 1020.45 1020.50 1020.57 1020.61 1020.54 1020.54 1020.38 1020.76 1020.71 1020.48 1020.25 1020.38 1020.07 1020.09 1020.09 1019.94 1019.82 1019.83
1009.24 1007.99 1006.92 1004.99 1002.70 1002.22 1001.94 1002.47 1002.86 1003.52 1004.56 1005.18 1007.23 1010.99 1014.09 1015.39 1015.60 1017.03 1017.66 1017.71 1018.11 1018.50 1019.04 1019.56 1019.77 1019.84 1019.93 1020.18 1020.36 1020.56 1020.75 1020.84 1020.89 1020.99 1020.95 1020.90 1020.79 1020.74 1020.97 1021.01 1020.74 1020.63 1020.72 1020.35 1020.36 1020.43 1020.30 1020.36 1020.32
1008.25 1007.05 1005.34 1003.90 1002.14 1001.84 1002.42 1002.90 1003.36 1004.23 1005.47 1006.63 1008.21 1012.51 1014.87 1016.48 1016.51 1017.16 1017.57 1017.66 1018.16 1018.80 1019.30 1019.75 1020.05 1020.20 1020.25 1020.40 1020.57 1020.68 1020.96 1021.19 1021.25 1021.23 1021.23 1021.20 1021.21 1021.07 1021.22 1021.16 1021.08 1021.03 1021.01 1020.72 1020.66 1020.69 1020.64 1020.69 1020.78
1007.14 1005.87 1004.47 1002.59 1001.48 1002.05 1002.94 1003.57 1004.13 1004.93 1006.36 1007.75 1009.51 1012.47 1016.09 1017.15 1017.25 1017.45 1017.66 1017.99 1018.29 1018.87 1019.48 1019.77 1020.15 1020.34 1020.52 1020.68 1020.82 1020.91 1021.17 1021.27 1021.46 1021.44 1021.37 1021.39 1021.47 1021.40 1021.35 1021.35 1021.32 1021.38 1021.23 1021.03 1020.91 1020.94 1020.95 1020.86 1020.86
1006.55 1005.09 1003.88 1002.59 1002.16 1002.60 1003.49 1004.30 1005.25 1006.76 1007.95 1009.27 1009.39 1012.50 1016.49 1017.30 1017.66 1017.87 1018.08 1018.14 1018.48 1018.93 1019.35 1019.71 1020.05 1020.41 1020.71 1020.88 1020.98 1021.09 1021.28 1021.36 1021.46 1021.62 1021.54 1021.61 1021.55 1021.54 1021.47 1021.38 1021.43 1021.55 1021.41 1021.20 1021.23 1021.22 1021.16 1021.13 1021.06
1005.74 1005.01 1003.89 1002.86 1002.61 1003.06 1004.26 1005.29 1006.69 1008.12 1010.12 1009.95 1010.65 1012.61 1015.83 1017.24 1017.86 1018.18 1018.29 1018.55 1018.69 1019.08 1019.50 1019.79 1020.01 1020.32 1020.42 1020.79 1020.87 1020.99 1021.28 1021.40 1021.44 1021.53 1021.66 1021.72 1021.66 1021.56 1021.49 1021.48 1021.47 1021.53 1021.48 1021.40 1021.45 1021.41 1021.40 1021.36 1021.16
1005.62 1005.27 1003.80 1002.92 1003.51 1004.32 1005.05 1006.29 1008.60 1010.51 1011.64 1012.53 1013.29 1013.95 1015.76 1017.38 1018.02 1018.26 1018.48 1018.62 1018.78 1019.06 1019.33 1019.61 1019.78 1019.99 1020.15 1020.47 1020.72 1020.89 1021.01 1021.10 1021.25 1021.39 1021.47 1021.53 1021.53 1021.33 1021.39 1021.44 1021.53 1021.65 1021.66 1021.56 1021.50 1021.44 1021.45 1021.38 1021.19
1005.61 1005.14 1004.52 1004.34 1004.83 1005.53 1006.67 1007.82 1008.96 1010.93 1012.65 1014.25 1015.29 1016.41 1017.06 1017.58 1017.74 1017.77 1018.16 1018.30 1018.49 1018.96 1019.26 1019.45 1019.67 1019.85 1019.77 1019.69 1020.06 1020.15 1020.47 1020.53 1020.67 1020.56 1020.97 1021.06 1020.91 1020.83 1021.07 1021.43 1021.57 1021.62 1021.66 1021.63 1021.52 1021.39 1021.45 1021.42 1021.18
1005.41 1005.32 1005.46 1005.59 1006.27 1006.75 1008.40 1009.71 1010.84 1010.64 1013.06 1014.56 1015.93 1016.92 1017.36 1017.46 1017.26 1017.52 1017.56 1017.91 1018.32 1018.68 1019.03 1019.42 1019.59 1019.68 1019.71 1019.66 1019.48 1019.35 1019.55 1019.58 1019.84 1020.04 1020.48 1020.38 1020.36 1020.56 1020.75 1021.12 1021.33 1021.41 1021.39 1021.37 1021.30 1021.14 1021.14 1020.88 1020.70
1005.85 1006.06 1006.81 1007.09 1007.11 1007.51 1009.29 1010.98 1012.61 1013.00 1014.57 1015.49 1016.21 1016.86 1017.18 1017.01 1016.93 1017.00 1017.54 1018.02 1018.48 1018.68 1018.90 1019.22 1019.39 1019.61 1019.66 1019.68 1019.85 1019.78 1019.72 1019.88 1019.84 1020.04 1020.15 1020.46 1020.55 1020.59 1020.39 1020.38 1020.68 1020.77 1020.66 1020.66 1020.76 1020.49 1020.40 1020.55 1020.70
1006.34 1006.99 1007.95 1008.31 1008.19 1009.16 1010.26 1011.81 1013.19 1014.58 1015.39 1015.91 1016.30 1016.59 1016.48 1016.21 1016.66 1016.84 1017.53 1018.01 1018.29 1018.63 1018.85 1019.08 1019.34 1019.52 1019.65 1019.98 1019.98 1020.09 1020.24 1020.01 1019.90 1019.95 1020.05 1020.33 1020.48 1020.49 1020.12 1020.08 1019.91 1019.94 1019.85 1019.84 1020.03 1020.08 1020.30 1020.53 1020.57
1006.95 1007.69 1008.56 1009.07 1009.53 1010.55 1011.49 1012.62 1012.65 1014.70 1014.98 1015.38 1015.55 1015.66 1015.89 1016.32 1016.85 1017.15 1017.38 1017.93 1018.21 1018.57 1018.80 1019.11 1019.44 1019.62 1019.91 1020.05 1019.95 1019.83 1019.86 1019.67 1019.54 1019.76 1019.79 1019.90 1020.17 1020.31 1020.14 1020.02 1019.86 1019.76 1019.62 1019.57 1019.67 1019.86 1019.99 1020.20 1020.27
1007.90 1008.34 1008.85 1009.26 1009.77 1010.38 1011.26 1012.17 1013.24 1014.19 1014.19 1014.52 1015.06 1015.67 1015.94 1016.10 1016.20 1016.66 1017.11 1017.48 1017.63 1017.63 1018.12 1018.71 1019.27 1019.56 1019.98 1019.82 1019.91 1019.81 1019.47 1019.77 1019.57 1019.32 1019.33 1019.37 1019.61 1019.74 1019.76 1019.79 1019.69 1019.63 1019.53 1019.56 1019.39 1019.31 1019.53 1019.95 1019.90
1008.21 1008.22 1008.42 1008.92 1009.56 1010.33 1010.69 1012.04 1013.30 1013.58 1013.74 1013.99 1014.60 1015.14 1015.59 1016.01 1016.27 1016.70 1017.03 1016.86 1016.85 1017.33 1018.15 1018.57 1018.95 1019.26 1019.53 1019.87 1020.10 1019.70 1019.38 1019.59 1019.32 1018.87 1018.83 1018.81 1018.81 1018.91 1019.32 1019.47 1019.47 1019.38 1019.24 1019.22 1019.33 1019.57 1019.43 1019.65 1019.74
1008.09 1007.74 1007.56 1008.64 1009.21 1009.51 1010.81 1011.65 1012.99 1013.30 1013.39 1013.89 1014.48 1014.95 1015.39 1015.82 1016.23 1016.69 1016.70 1016.78 1016.98 1017.50 1018.14 1018.23 1018.56 1018.75 1018.97 1019.14 1019.30 1019.28 1018.85 1018.41 1018.24 1018.05 1017.87 1017.92 1018.00 1018.17 1018.59 1018.79 1018.62 1018.88 1019.02 1019.10 1019.21 1019.37 1019.39 1019.66 1019.56
1007.07 1007.32 1006.89 1007.50 1009.08 1009.62 1009.98 1011.65 1012.73 1013.09 1013.41 1013.89 1014.12 1014.59 1015.02 1015.50 1016.04 1016.72 1016.85 1017.15 1017.37 1017.42 1017.73 1017.90 1017.94 1018.17 1018.38 1018.45 1018.45 1018.28 1018.07 1017.63 1017.45 1017.28 1017.15 1017.10 1017.03 1017.23 1017.66 1017.88 1017.90 1018.05 1018.34 1018.42 1018.65 1018.95 1019.03 1019.39 1019.74
1006.56 1006.57 1006.88 1008.47 1009.44 1009.54 1010.17 1011.31 1012.59 1013.11 1013.57 1013.98 1014.09 1014.31 1014.79 1015.39 1015.81 1016.18 1016.50 1016.86 1017.13 1017.34 1017.54 1017.69 1017.68 1017.68 1017.72 1017.71 1017.69 1017.45 1017.41 1017.01 1016.89 1016.70 1016.55 1016.69 1016.76 1016.88 1017.01 1017.72 1017.53 1018.38 1018.24 1018.44 1018.30 1018.73 1018.77 1018.88 1019.12
1006.90 1006.97 1007.53 1008.76 1009.74 1010.29 1010.49 1011.19 1012.17 1012.96 1013.30 1013.38 1013.67 1014.13 1014.70 1015.22 1015.51 1015.90 1016.44 1016.89 1017.01 1017.19 1017.14 1017.27 1017.51 1017.66 1017.77 1017.75 1017.77 1017.71 1017.53 1017.30 1017.09 1016.88 1016.74 1016.64 1016.62 1016.61 1016.89 1017.02 1017.48 1017.40 1017.64 1018.13 1018.02 1018.53 1018.61 1018.52 1018.59
1007.22 1007.37 1007.68 1008.74 1010.04 1010.73 1010.61 1010.98 1011.78 1012.55 1012.95 1013.60 1014.21 1014.56 1014.88 1015.26 1015.69 1016.02 1016.21 1016.52 1016.82 1017.15 1017.33 1017.55 1017.80 1017.97 1018.12 1018.14 1017.98 1017.84 1017.67 1017.47 1017.35 1017.22 1017.15 1016.98 1017.06 1017.23 1017.16 1017.11 1017.16 1017.29 1017.28 1017.46 1017.62 1017.46 1018.25 1018.17 1018.24
1007.85 1008.30 1008.71 1009.33 1010.44 1010.33 1010.51 1010.63 1011.51 1012.22 1012.92 1013.42 1013.98 1014.55 1015.05 1015.41 1015.81 1016.15 1016.51 1016.79 1017.12 1017.31 1017.52 1017.91 1018.18 1018.38 1018.37 1018.30 1018.26 1018.33 1018.23 1018.02 1017.89 1017.92 1017.87 1017.77 1017.58 1017.52 1017.44 1017.35 1017.14 1017.00 1017.16 1017.20 1017.28 1017.22 1017.48 1017.45 1017.56
1008.97 1009.44 1009.69 1010.06 1010.60 1010.81 1010.77 1011.43 1011.36 1012.37 1012.78 1013.52 1014.20 1014.92 1015.19 1015.67 1016.20 1016.52 1016.78 1016.96 1017.24 1017.47 1017.89 1018.22 1018.53 1018.64 1018.69 1018.80 1018.94 1019.04 1019.14 1019.06 1018.63 1018.39 1018.36 1018.27 1017.99 1017.84 1017.67 1017.70 1017.90 1017.58 1017.20 1017.23 1017.26 1017.36 1017.44 1017.48 1017.52
1009.75 1010.18 1010.45 1010.75 1011.05 1011.15 1011.16 1011.19 1011.70 1011.90 1012.55 1013.58 1014.44 1014.90 1015.44 1016.02 1016.44 1016.86 1016.91 1017.19 1017.61 1017.98 1018.45 1018.75 1018.92 1019.02 1019.09 1019.35 1019.64 1020.09 1020.17 1020.00 1019.59 1019.37 1019.20 1019.15 1019.05 1018.75 1018.48 1018.34 1018.17 1018.14 1017.97 1017.96 1017.85 1017.70 1017.57 1017.64 1017.54
1010.43 1010.58 1010.84 1011.34 1011.43 1011.51 1011.41 1011.48 1011.85 1012.89 1013.08 1014.01 1014.59 1015.20 1015.71 1016.30 1016.71 1017.04 1017.24 1017.69 1018.15 1018.48 1018.87 1019.12 1019.30 1019.39 1019.47 1020.03 1020.46 1020.82 1020.90 1020.59 1020.31 1020.17 1019.97 1019.78 1019.50 1019.41 1019.34 1019.13 1019.05 1018.89 1018.67 1018.52 1018.29 1018.11 1017.93 1017.52 1017.40
1010.25 1010.54 1010.91 1011.16 1011.38 1012.12 1012.62 1011.92 1012.56 1013.12 1013.86 1014.50 1015.10 1015.69 1016.02 1016.48 1016.90 1017.24 1017.61 1018.03 1018.48 1018.76 1019.14 1019.40 1019.68 1019.81 1020.17 1020.61 1021.19 1021.22 1021.10 1020.84 1020.64 1020.57 1020.46 1020.27 1020.07 1019.78 1019.41 1019.06 1018.89 1018.65 1018.34 1018.28 1018.33 1018.22 1017.88 1017.48 1017.10
1009.93 1010.30 1011.03 1011.53 1012.08 1012.52 1013.42 1014.17 1013.85 1013.71 1014.49 1015.06 1015.47 1015.97 1016.32 1016.74 1017.18 1017.55 1017.94 1018.33 1018.75 1019.06 1019.36 1019.60 1019.99 1020.28 1020.60 1021.31 1021.63 1021.49 1021.23 1021.08 1020.90 1020.73 1020.56 1020.22 1019.80 1019.34 1018.89 1018.77 1018.65 1018.41 1018.07 1017.87 1017.94 1017.94 1017.84 1017.59 1017.38
1010.72 1011.14 1011.32 1012.67 1014.21 1014.44 1013.65 1013.85 1014.12 1014.16 1014.69 1015.22 1015.70 1016.23 1016.65 1017.05 1017.54 1017.98 1018.32 1018.63 1018.90 1019.24 1019.51 1020.03 1020.39 1020.64 1021.00 1021.63 1021.84 1021.67 1021.32 1021.03 1020.92 1020.75 1020.40 1019.97 1019.49 1019.05 1018.75 1018.51 1018.27 1018.22 1018.02 1017.80 1017.68 1017.56 1017.46 1017.49 1017.26
1011.11 1011.74 1012.29 1013.96 1016.00 1016.08 1015.29 1015.82 1015.06 1014.82 1015.09 1015.60 1016.01 1016.32 1016.81 1017.33 1017.87 1018.32 1018.62 1018.87 1019.04 1019.36 1019.65 1020.21 1020.69 1020.83 1021.33 1021.65 1021.78 1021.69 1021.43 1021.11 1020.75 1020.48 1020.09 1019.76 1019.36 1018.86 1018.45 1018.08 1017.81 1017.69 1017.60 1017.37 1017.42 1017.39 1017.12 1016.89 1016.89
1011.40 1011.97 1013.01 1015.12 1016.82 1016.84 1016.26 1016.26 1015.73 1015.61 1015.73 1016.09 1016.29 1016.35 1016.94 1017.54 1018.07 1018.46 1018.82 1019.03 1019.21 1019.38 1019.74 1020.41 1020.81 1021.11 1021.54 1021.69 1021.66 1021.59 1021.12 1020.72 1020.28 1020.02 1019.84 1019.42 1019.03 1018.57 1018.24 1017.86 1017.65 1017.43 1017.16 1016.95 1016.87 1016.76 1016.71 1016.73 1016.74
Thickness
5772 5772 5777 5777 5751 5771 5777 5787 5803 5798 5779 5789 5783 5761 5729 5723 5716 5692 5698 5695 5692 5688 5683 5681 5680 5679 5676 5674 5671 5669 5667 5665 5663 5662 5661 5659 5660 5659 5658 5656 5656 5657 5657 5660 5659 5659 5662 5663 5664
5773 5780 5780 5770 5748 5756 5779 5795 5778 5782 5782 5784 5774 5751 5738 5698 5704 5694 5688 5687 5684 5681 5678 5675 5672 5671 5667 5664 5662 5660 5658 5656 5654 5653 5652 5651 5652 5652 5649 5647 5651 5650 5650 5654 5653 5654 5655 5656 5657
5764 5774 5759 5758 5759 5762 5764 5774 5773 5778 5783 5778 5752 5741 5722 5694 5694 5686 5684 5682 5679 5676 5672 5666 5664 5662 5660 5656 5654 5652 5649 5648 5646 5645 5644 5644 5644 5644 5640 5640 5642 5644 5643 5646 5646 5647 5648 5649 5649
5763 5767 5766 5748 5761 5772 5776 5768 5776 5770 5767 5770 5744 5707 5696 5695 5692 5683 5680 5678 5674 5670 5664 5659 5656 5654 5652 5648 5646 5642 5640 5638 5636 5635 5634 5634 5634 5634 5632 5631 5633 5634 5633 5636 5637 5637 5639 5638 5639
5765 5759 5745 5750 5769 5776 5777 5780 5782 5754 5749 5743 5738 5691 5682 5681 5685 5680 5675 5673 5668 5662 5656 5651 5647 5644 5642 5640 5637 5634 5631 5627 5626 5625 5624 5623 5623 5623 5622 5623 5624 5624 5624 5626 5627 5627 5628 5628 5628
5745 5760 5740 5752 5782 5773 5766 5774 5768 5753 5745 5736 5719 5696 5669 5674 5674 5672 5670 5666 5661 5655 5649 5644 5639 5636 5632 5628 5625 5623 5620 5618 5616 5614 5614 5613 5613 5613 5613 5614 5615 5614 5616 5617 5618 5617 5618 5620 5621
5740 5746 5744 5765 5768 5760 5751 5763 5748 5730 5726 5715 5727 5692 5665 5665 5667 5665 5662 5658 5654 5648 5643 5638 5632 5627 5623 5619 5616 5614 5610 5608 5606 5604 5604 5603 5603 5603 5604 5605 5605 5604 5606 5608 5608 5608 5609 5609 5611
5755 5751 5744 5763 5760 5751 5751 5746 5742 5726 5702 5724 5719 5691 5662 5662 5660 5657 5655 5650 5647 5641 5635 5631 5626 5621 5618 5612 5610 5607 5603 5600 5599 5596 5594 5593 5594 5594 5595 5595 5596 5596 5597 5599 5599 5600 5600 5600 5602
5765 5733 5739 5764 5751 5739 5750 5728 5725 5711 5695 5691 5689 5684 5672 5659 5654 5649 5645 5642 5639 5634 5629 5623 5620 5615 5611 5608 5602 5598 5595 5592 5590 5587 5585 5584 5584 5586 5586 5586 5587 5587 5588 5589 5591 5592 5592 5593 5595
5741 5729 5739 5757 5744 5732 5731 5721 5714 5691 5687 5670 5664 5661 5658 5653 5650 5647 5640 5636 5633 5626 5621 5617 5612 5607 5603 5600 5598 5596 5589 5586 5584 5582 5577 5576 5576 5576 5576 5575 5576 5578 5578 5580 5581 5583 5584 5585 5587
5742 5724 5735 5739 5737 5730 5715 5706 5699 5699 5675 5670 5654 5649 5649 5648 5649 5642 5640 5635 5628 5623 5617 5610 5604 5600 5595 5591 5590 5588 5585 5582 5580 5574 5570 5569 5569 5569 5567 5567 5567 5569 5571 5572 5574 5576 5578 5579 5582
5724 5732 5724 5727 5734 5723 5706 5696 5674 5674 5662 5661 5655 5650 5646 5645 5643 5641 5633 5627 5621 5618 5612 5607 5601 5594 5589 5585 5581 5579 5575 5571 5569 5567 5562 5560 5560 5561 5562 5562 5562 5563 5565 5568 5568 5570 5572 5570 5570
5721 5719 5714 5714 5718 5708 5702 5681 5668 5656 5656 5655 5651 5648 5646 5648 5641 5637 5629 5622 5617 5611 5607 5600 5593 5589 5584 5577 5574 5570 5566 5564 5562 5560 5558 5553 5551 5554 5556 5556 5558 5559 5562 5563 5562 5562 5562 5561 5561
5721 5712 5704 5703 5697 5690 5674 5667 5675 5654 5659 5654 5653 5651 5647 5639 5632 5627 5624 5616 5612 5605 5601 5595 5587 5582 5576 5572 5568 5566 5561 5559 5558 5554 5554 5551 5548 5547 5549 5550 5551 5552 5554 5555 5557 5555 5554 5555 5554
5711 5692 5695 5693 5691 5682 5680 5662 5654 5657 5662 5656 5649 5642 5638 5635 5634 5626 5620 5614 5611 5608 5600 5590 5581 5574 5568 5565 5560 5558 5556 5551 5550 5550 5549 5547 5546 5544 5544 5544 5546 5546 5547 5547 5548 5550 5549 5545 5546
5694 5694 5674 5687 5687 5682 5678 5643 5653 5661 5658 5651 5645 5639 5634 5629 5627 5622 5617 5615 5611 5606 5592 5587 5577 5570 5563 5557 5552 5551 5550 5546 5545 5546 5545 5544 5544 5543 5539 5538 5539 5539 5540 5540 5539 5538 5540 5537 5537
5686 5673 5682 5670 5688 5682 5668 5646 5653 5658 5654 5644 5639 5635 5630 5625 5622 5616 5615 5611 5605 5596 5586 5580 5574 5568 5562 5556 5552 5549 5549 5548 5546 5545 5544 5543 5541 5540 5537 5534 5536 5532 5531 5531 5530 5528 5528 5526 5527
5677 5676 5694 5679 5678 5677 5670 5647 5649 5652 5647 5638 5636 5632 5626 5620 5615 5611 5608 5602 5595 5590 5582 5576 5572 5568 5563 5556 5552 5550 5549 5549 5547 5545 5543 5541 5539 5538 5534 5532 5531 5529 5526 5525 5523 5519 5518 5514 5512
5700 5698 5689 5669 5675 5672 5666 5650 5643 5645 5639 5631 5630 5627 5622 5615 5613 5610 5605 5598 5591 5583 5577 5572 5567 5564 5560 5556 5552 5550 5547 5547 5545 5543 5542 5539 5535 5533 5530 5525 5526 5516 5517 5514 5515 5509 5508 5507 5504
5690 5686 5680 5671 5670 5658 5657 5646 5644 5639 5635 5635 5630 5624 5618 5612 5609 5604 5597 5589 5584 5578 5576 5571 5565 5559 5553 5549 5544 5540 5539 5539 5537 5535 5533 5531 5529 5528 5524 5521 5516 5515 5510 5505 5505 5499 5497 5496 5495
5681 5676 5676 5665 5658 5655 5652 5640 5636 5637 5637 5630 5624 5618 5613 5607 5600 5596 5591 5586 5580 5573 5569 5565 5559 5553 5547 5542 5539 5535 5533 5531 5528 5526 5524 5521 5518 5514 5511 5508 5506 5503 5501 5497 5494 5493 5484 5483 5484
5661 5674 5668 5658 5640 5629 5654 5623 5629 5628 5623 5623 5618 5613 5606 5602 5597 5591 5584 5579 5573 5569 5566 5559 5552 5545 5541 5537 5532 5526 5523 5521 5519 5514 5511 5508 5504 5500 5495 5493 5492 5490 5486 5484 5480 5478 5473 5471 5471
5652 5662 5655 5650 5639 5634 5637 5621 5622 5623 5612 5611 5610 5604 5601 5596 5589 5583 5578 5575 5570 5566 5559 5552 5544 5538 5533 5527 5521 5514 5508 5505 5505 5503 5498 5494 5490 5486 5482 5476 5471 5468 5466 5463 5461 5456 5452 5451 5451
5659 5647 5644 5641 5634 5612 5631 5626 5611 5618 5618 5606 5602 5600 5594 5589 5583 5577 5575 5570 5563 5558 5550 5543 5536 5531 5526 5518 5508 5498 5492 5489 5488 5484 5480 5474 5468 5464 5459 5454 5450 5445 5442 5436 5433 5431 5429 5427 5427
5642 5633 5610 5603 5603 5602 5634 5622 5618 5613 5616 5605 5597 5592 5588 5583 5576 5571 5567 5561 5555 5549 5542 5536 5529 5523 5517 5506 5496 5486 5480 5476 5472 5467 5461 5455 5449 5443 5436 5430 5423 5417 5411 5405 5400 5397 5397 5402 5403
5634 5632 5612 5591 5604 5605 5620 5603 5601 5614 5609 5602 5594 5588 5583 5577 5571 5566 5561 5556 5549 5543 5536 5529 5521 5515 5506 5496 5483 5476 5470 5466 5460 5452 5444 5436 5430 5424 5419 5412 5403 5395 5387 5379 5370 5361 5360 5365 5375
5636 5620 5634 5615 5621 5612 5604 5593 5602 5606 5595 5591 5585 5580 5575 5570 5565 5559 5556 5549 5542 5536 5530 5523 5515 5506 5496 5483 5473 5467 5461 5455 5448 5440 5431 5424 5418 5411 5402 5392 5384 5375 5368 5358 5346 5331 5325 5330 5339
5626 5628 5608 5605 5566 5566 5603 5591 5578 5589 5584 5583 5577 5571 5568 5564 5558 5553 5548 5543 5537 5531 5525 5514 5505 5497 5487 5474 5465 5459 5454 5447 5437 5427 5420 5413 5404 5395 5385 5376 5368 5358 5348 5337 5324 5313 5309 5307 5313
5611 5605 5608 5589 5556 5557 5574 5557 5583 5583 5580 5572 5569 5568 5563 5557 5551 5546 5542 5537 5532 5526 5519 5508 5497 5491 5479 5468 5459 5451 5443 5435 5427 5417 5410 5400 5389 5379 5370 5362 5354 5344 5332 5321 5307 5296 5294 5294 5296
5615 5602 5590 5551 5545 5558 5567 5554 5578 5576 5573 5567 5564 5565 5559 5553 5547 5542 5536 5531 5526 5521 5513 5501 5492 5483 5471 5462 5453 5443 5437 5429 5421 5411 5400 5390 5378 5366 5355 5347 5338 5328 5318 5306 5295 5283 5279 5279 5281